This is the latest recevied weather packets stored in our database for station/object N8SDR. If no packets are shown the sender has not sent any weather packets the latest 10 day(s).
| Time | Temp. | Humidity | Pressure | Rain* | Wind** | Luminosity | Snow |
|---|---|---|---|---|---|---|---|
| 1777742589 | 11.11° C | 46% | 1014.3 hPa | 0 mm | - | 860 W/m² | - |
| 1777742285 | 11.11° C | 49% | 1014.6 hPa | 0 mm | - | 770 W/m² | - |
| 1777741982 | 10.56° C | 51% | 1014.6 hPa | 0 mm | - | 199 W/m² | - |
| 1777741679 | 10.56° C | 49% | 1014.9 hPa | 0 mm | - | 792 W/m² | - |
| 1777741375 | 10.56° C | 51% | 1014.8 hPa | 0 mm | - | 814 W/m² | - |
| 1777741071 | 11.11° C | 48% | 1014.8 hPa | 0 mm | - | 176 W/m² | - |
| 1777740769 | 11.11° C | 51% | 1014.8 hPa | 0 mm | - | 780 W/m² | - |
| 1777740465 | 10.56° C | 51% | 1014.7 hPa | 0 mm | - | 781 W/m² | - |
| 1777740163 | 10.56° C | 52% | 1014.8 hPa | 0 mm | - | 806 W/m² | - |
| 1777739858 | 10.56° C | 51% | 1014.9 hPa | 0 mm | - | 836 W/m² | - |
| 1777739555 | 11.11° C | 50% | 1014.9 hPa | 0 mm | - | 417 W/m² | - |
| 1777739252 | 11.11° C | 50% | 1014.9 hPa | 0 mm | - | 752 W/m² | - |
| 1777738949 | 10.56° C | 50% | 1015.1 hPa | 0 mm | - | 772 W/m² | - |
| 1777738646 | 10.56° C | 54% | 1015.1 hPa | 0 mm | - | 730 W/m² | - |
| 1777738342 | 10.56° C | 51% | 1015 hPa | 0 mm | - | 709 W/m² | - |
| 1777738041 | 10.56° C | 52% | 1015 hPa | 0 mm | - | 718 W/m² | - |
| 1777737739 | 10.56° C | 51% | 1015.3 hPa | 0 mm | - | 718 W/m² | - |
| 1777737437 | 10.56° C | 53% | 1015.2 hPa | 0 mm | - | 716 W/m² | - |
| 1777737134 | 10° C | 53% | 1015.2 hPa | 0 mm | - | 728 W/m² | - |
| 1777736830 | 10.56° C | 54% | 1015.2 hPa | 0 mm | - | 765 W/m² | - |
| 1777736212 | 10.56° C | 51% | 1015 hPa | 0 mm | - | 780 W/m² | - |
| 1777735909 | 10° C | 53% | 1015.1 hPa | 0 mm | - | 796 W/m² | - |
| 1777735606 | 10° C | 53% | 1015 hPa | 0 mm | - | 796 W/m² | - |
| 1777735303 | 10° C | 52% | 1015.3 hPa | 0 mm | - | 775 W/m² | - |
| 1777735001 | 10° C | 55% | 1015.1 hPa | 0 mm | - | 783 W/m² | - |
* Rain latest hour (hover to see other rain measurements)
** Current wind speed in m/s (hover to see current wind gust speed)